Charlottesville, VA

9:36 PM EDT on August 20, 2017 (GMT -0400)
Charlottesville-Albemarle

Weather History for KCHO - March, 2014

Change the Weather History Date:

Wednesday, March 26, 2014

  Actual Average Record
Temperature  
Mean Temperature 32 °F 49 °F  
Max Temperature 38 °F 61 °F 85 °F (1939)
Min Temperature 25 °F 38 °F 19 °F (1906)
Degree Days  
Heating Degree Days 33 16  
Month to date heating degree days 652 516  
Since 1 July heating degree days 4161 3928  
Cooling Degree Days 0 0  
Month to date cooling degree days 0 0  
Year to date cooling degree days 0 0  
Moisture  
Dew Point 10 °F    
Average Humidity 57    
Maximum Humidity 85    
Minimum Humidity 29    
Precipitation  
Precipitation T in 0.13 in 0.46 in (2010)
Month to date precipitation 1.49 2.97  
Year to date precipitation 6.58 8.44  
Sea Level Pressure  
Sea Level Pressure 30.14 in    
Wind  
Wind Speed 8 mph (NNW)    
Max Wind Speed 16 mph    
Max Gust Speed 28 mph    
Visibility 10 miles    
Events      
T = Trace of Precipitation, MM = Missing Value Source: NWS Daily Summary

Daily Weather History Graph

Daily Weather History Graph

Search for Another Location

Airport or City:

Trip Planner

Search our weather history database for the weather conditions in past years. The results will help you decide how hot, cold, wet, or windy it might be!

Date:

Astronomy

Mar. 26, 2014 Rise Set
Actual Time 7:08 AM EDT 7:31 PM EDT
Civil Twilight 6:41 AM EDT 7:57 PM EDT
Nautical Twilight 6:10 AM EDT 8:28 PM EDT
Astronomical Twilight 5:39 AM EDT 9:00 PM EDT
Moon 4:11 AM EDT (3/26) 3:11 PM EDT (3/26)
Length of Visible Light 13h 16m
Length of Day
12h 23m
Waning Crescent, 22% of the Moon is Illuminated
Mar 26
Waning Crescent
Mar 30
New
Apr 7
First Quarter
Apr 15
Full
Apr 22
Last Quarter

Hourly Weather History & Observations

Time (EDT) Temp. Windchill Dew Point Humidity Pressure Visibility Wind Dir Wind Speed Gust Speed Precip Events Conditions
12:53 AM 28.9 °F - 24.1 °F 82% 29.93 in 10.0 mi Calm Calm - N/A   Partly Cloudy
1:53 AM 28.9 °F 20.4 °F 25.0 °F 85% 29.95 in 10.0 mi North 9.2 mph - 0.00 in   Overcast
2:53 AM 28.0 °F 19.3 °F 21.9 °F 78% 29.97 in 10.0 mi NNW 9.2 mph - 0.00 in   Clear
3:53 AM 28.0 °F 19.3 °F 17.1 °F 63% 29.98 in 10.0 mi NNW 9.2 mph 23.0 mph N/A   Partly Cloudy
4:53 AM 27.0 °F 18.7 °F 15.1 °F 61% 30.00 in 10.0 mi NW 8.1 mph - N/A   Scattered Clouds
5:53 AM 27.0 °F 18.0 °F 9.0 °F 47% 30.03 in 10.0 mi WNW 9.2 mph - N/A   Clear
6:53 AM 26.1 °F 15.6 °F 7.0 °F 44% 30.05 in 10.0 mi NW 11.5 mph 27.6 mph N/A   Clear
7:53 AM 26.1 °F 17.6 °F 7.0 °F 44% 30.10 in 10.0 mi NW 8.1 mph - N/A   Clear
8:53 AM 27.0 °F 18.0 °F 7.0 °F 43% 30.14 in 10.0 mi NNW 9.2 mph 19.6 mph N/A   Partly Cloudy
9:53 AM 28.9 °F 21.1 °F 8.1 °F 41% 30.17 in 10.0 mi NW 8.1 mph - N/A   Partly Cloudy
10:53 AM 30.0 °F 23.2 °F 8.1 °F 40% 30.18 in 10.0 mi Variable 6.9 mph 17.3 mph N/A   Scattered Clouds
11:53 AM 30.0 °F 21.1 °F 7.0 °F 38% 30.19 in 10.0 mi WNW 10.4 mph 18.4 mph N/A   Scattered Clouds
12:53 PM 32.0 °F 24.8 °F 5.0 °F 32% 30.19 in 10.0 mi NW 8.1 mph - N/A   Scattered Clouds
1:41 PM 34.0 °F 25.5 °F 6.1 °F 31% 30.17 in 10.0 mi North 11.5 mph 23.0 mph N/A   Clear
1:53 PM 34.0 °F 25.5 °F 8.1 °F 34% 30.18 in 10.0 mi North 11.5 mph 23.0 mph N/A   Clear
2:53 PM 35.1 °F 26.4 °F 7.0 °F 31% 30.17 in 10.0 mi NW 12.7 mph 23.0 mph N/A   Clear
3:53 PM 36.0 °F 28.0 °F 8.1 °F 31% 30.18 in 10.0 mi NW 11.5 mph 23.0 mph N/A   Clear
4:53 PM 36.0 °F 27.1 °F 7.0 °F 30% 30.19 in 10.0 mi NW 13.8 mph - N/A   Clear
5:53 PM 37.9 °F 34.4 °F 9.0 °F 30% 30.19 in 10.0 mi Variable 4.6 mph - N/A   Clear
6:53 PM 36.0 °F 29.6 °F 9.0 °F 33% 30.22 in 10.0 mi NNW 8.1 mph - N/A   Clear
7:53 PM 34.0 °F - 8.1 °F 34% 30.25 in 10.0 mi Calm Calm - N/A   Clear
8:53 PM 30.9 °F 27.5 °F 8.1 °F 38% 30.27 in 10.0 mi North 3.5 mph - N/A   Clear
9:53 PM 30.9 °F - 9.0 °F 40% 30.29 in 10.0 mi Calm Calm - N/A   Clear
10:53 PM 30.9 °F 27.5 °F 9.0 °F 40% 30.31 in 10.0 mi East 3.5 mph - N/A   Clear
11:53 PM 28.9 °F 23.9 °F 8.1 °F 41% 30.32 in 10.0 mi NW 4.6 mph - N/A   Clear